Tracking 35280 objects as of 7-Sep-2026
HD Live streaming from Space Station
objects crossing your sky now

SL-12 DEB


SL-12 DEB is no longer on orbit


NORAD ID: 43685
Int'l Code: 2010-007AN
Launch date: March 1, 2010
Source: Commonwealth of Independent States (former USSR) (CIS)
Launch site: TYURATAM MISSILE AND SPACE COMPLEX (TTMTR)
Decay date: 2025-05-07

Note: This is SATELLITE DEBRIS
Your satellite tracking list
Your tracking list is empty




NASA's NSSDC Master Catalog

Two Line Element Set (TLE):
1 43685U 10007AN  19127.68515548 -.03080681  00000-0 -42564+0 0  9994
2 43685  65.3988  51.4797 5744236  33.4265  19.2125  4.44638059 13450
Source of the keplerian elements: AFSPC